Flag for Greenland Weather past 2 weeks in Danmarkshavn, Greenland

Now
50 °F

Sunny.


Feels Like: 44 °F
Forecast: 36 / 39 °F
Wind: 14 mph from Northwest

Location: Danmarkshavn

Current Time: Jul 25, 2014 at 12:47:06 PM

Latest Report: Jul 25, 2014 at 12:00 PM


Visibility: 31 mi

Pressure: 29.89 "Hg

Humidity: 58%

Dew point: 35 °F

Location of DanmarkshavnLocation

Historic Weather in Danmarkshavn — Graph

°F

Danmarkshavn temperature yesterday

Maximum temperature yesterday: 56 °F (at 1:00 PM)
Minimum temperature yesterday: 48 °F (at 6:00 AM)
Average temperature yesterday: 52 °F

Past Weeks' High & Low Weather Summary

 TemperatureHumidityPressure
High58 °F (Jul 21, 3:00 PM)100% (Jul 11, 3:00 AM)30.14 "Hg (Jul 11, 3:00 AM)
Low32 °F (Jul 13, 11:00 PM)41% (Jul 24, 1:00 PM)29.54 "Hg (Jul 23, 9:00 PM)
Average43 °F79%29.87 "Hg
* Reported Jul 10 11:00 AM — Jul 25 11:00 AM, Danmarkshavn, Weather by CustomWeather, © 2014

Note: Actual official high and low records may vary slightly from our data, if they occured in-between our weather recording intervals... More about our weather records

Advertising

Danmarkshavn weather history for previous 24 hours

 ConditionsComfort  
Time TempWeatherWind HumidityBarometerVisibility
11:00 AM
Jul 25
48 °FSunny.17 mph62%29.88 "Hg28 mi
10:00 AM48 °FSunny.14 mph60%29.88 "Hg28 mi
9:00 AM48 °FSunny.12 mph62%29.85 "Hg25 mi
8:00 AM48 °FSunny.3 mph65%29.86 "Hg22 mi
7:00 AM48 °FSunny.8 mph65%29.85 "Hg28 mi
6:00 AM45 °FSunny.8 mph69%29.84 "Hg31 mi
5:00 AM47 °FSunny.6 mph67%29.83 "Hg31 mi
4:00 AM49 °FSunny.6 mph63%29.83 "Hg31 mi
3:00 AM49 °FPassing clouds.7 mph60%29.83 "Hg28 mi
2:00 AM49 °FPartly sunny.8 mph60%29.82 "Hg31 mi
1:00 AM48 °FPassing clouds.12 mph63%29.82 "Hg31 mi
12:00 AM49 °FSunny.7 mph60%29.82 "Hg31 mi
11:00 PM
Jul 24
49 °FSunny.8 mph56%29.82 "Hg31 mi
10:00 PM48 °FSunny.12 mph64%29.81 "Hg31 mi
9:00 PM50 °FSunny.13 mph58%29.80 "Hg31 mi
8:00 PM53 °FSunny.8 mph49%29.81 "Hg31 mi
7:00 PM54 °FPassing clouds.7 mph47%29.80 "Hg31 mi
6:00 PM54 °FSunny.6 mph47%29.80 "Hg31 mi
5:00 PM54 °FSunny.15 mph49%29.78 "Hg25 mi
4:00 PM54 °FSunny.16 mph46%29.78 "Hg28 mi
3:00 PM55 °FSunny.12 mph45%29.79 "Hg25 mi
2:00 PM54 °FSunny.14 mph43%29.79 "Hg28 mi
1:00 PM56 °FSunny.12 mph41%29.79 "Hg25 mi
12:00 PM55 °FSunny.15 mph46%29.79 "Hg28 mi
Weather by CustomWeather, © 2014

See weather overviewHow to use our weather pages